| time (UTC) | temp C | wind direction | speed KPH | gust KPH | rain 1hr cm | rain 24hr cm | rain mn cm | humidity % | barometer mb |
| 20260505111509 | 13 | 49 | 17.7 | 30.6 | 0.00 | 0.00 | 0.00 | 80 | 1016.3 |
| 20260505101503 | 12 | 63 | 24.1 | 38.6 | 0.00 | 0.00 | 0.00 | 81 | 1016.5 |
| 20260505100058 | 12 | 37 | 24.1 | 38.6 | 0.00 | 0.00 | 0.00 | 83 | 1016.4 |
| 20260505094555 | 12 | 34 | 22.5 | 38.6 | 0.00 | 0.00 | 0.00 | 85 | 1016.5 |
| 20260505093053 | 12 | 34 | 22.5 | 38.6 | 0.00 | 0.00 | 0.00 | 86 | 1016.3 |
| 20260505091551 | 12 | 47 | 22.5 | 37.0 | 0.00 | 0.00 | 0.00 | 87 | 1016.2 |
| 20260505090054 | 12 | 41 | 20.9 | 37.0 | 0.00 | 0.00 | 0.00 | 87 | 1016.2 |
| 20260505084551 | 12 | 49 | 27.4 | 37.0 | 0.00 | 0.00 | 0.00 | 87 | 1016.2 |
| 20260505083100 | 12 | 11 | 25.7 | 35.4 | 0.00 | 0.00 | 0.00 | 88 | 1016.1 |
| 20260505081548 | 11 | 46 | 20.9 | 33.8 | 0.00 | 0.00 | 0.00 | 88 | 1016.0 |
| 20260505080042 | 11 | 52 | 22.5 | 30.6 | 0.00 | 0.00 | 0.00 | 88 | 1016.1 |
| 20260505074543 | 11 | 37 | 19.3 | 32.2 | 0.00 | 0.00 | 0.00 | 89 | 1016.0 |
| 20260505073038 | 11 | 27 | 17.7 | 27.4 | 0.00 | 0.00 | 0.00 | 88 | 1015.9 |
| 20260505071540 | 11 | 21 | 19.3 | 29.0 | 0.00 | 0.00 | 0.00 | 88 | 1015.9 |
| 20260505070045 | 11 | 18 | 14.5 | 25.7 | 0.00 | 0.00 | 0.00 | 89 | 1015.8 |
| 20260505064551 | 11 | 14 | 16.1 | 27.4 | 0.00 | 0.00 | 0.00 | 89 | 1015.8 |
| 20260505063033 | 11 | 25 | 14.5 | 30.6 | 0.00 | 0.00 | 0.00 | 89 | 1015.6 |
| 20260505061538 | 11 | 14 | 17.7 | 27.4 | 0.00 | 0.00 | 0.00 | 89 | 1015.6 |
| 20260505060030 | 11 | 41 | 16.1 | 27.4 | 0.00 | 0.00 | 0.00 | 89 | 1015.6 |
| 20260505054526 | 10 | 33 | 16.1 | 27.4 | 0.00 | 0.05 | 0.00 | 89 | 1015.5 |
| 20260505053023 | 10 | 27 | 16.1 | 27.4 | 0.00 | 0.05 | 0.00 | 89 | 1015.6 |
| 20260505051521 | 10 | 13 | 12.9 | 22.5 | 0.00 | 0.05 | 0.00 | 89 | 1015.5 |
| 20260505041525 | 10 | 15 | 11.3 | 20.9 | 0.00 | 0.05 | 0.00 | 89 | 1015.5 |
| 20260505040015 | 10 | 37 | 11.3 | 22.5 | 0.00 | 0.05 | 0.00 | 89 | 1015.6 |
| 20260505034513 | 10 | 30 | 11.3 | 24.1 | 0.00 | 0.05 | 0.00 | 89 | 1015.6 |
| 20260505033015 | 10 | 40 | 11.3 | 22.5 | 0.00 | 0.05 | 0.00 | 88 | 1015.5 |
| 20260505031510 | 10 | 71 | 9.7 | 22.5 | 0.00 | 0.05 | 0.00 | 88 | 1015.7 |
| 20260505030008 | 10 | 20 | 8.0 | 16.1 | 0.00 | 0.05 | 0.00 | 88 | 1015.7 |
| 20260505024524 | 10 | 37 | 9.7 | 19.3 | 0.00 | 0.05 | 0.00 | 88 | 1015.7 |
| 20260505023006 | 10 | 14 | 11.3 | 19.3 | 0.00 | 0.05 | 0.00 | 88 | 1015.7 |
| 20260505021506 | 11 | 21 | 11.3 | 19.3 | 0.00 | 0.05 | 0.00 | 88 | 1015.8 |
| 20260505020004 | 11 | 23 | 8.0 | 16.1 | 0.00 | 0.05 | 0.00 | 88 | 1015.8 |
| 20260505014502 | 11 | 44 | 6.4 | 16.1 | 0.00 | 0.05 | 0.00 | 88 | 1016.0 |
| 20260505013102 | 11 | 37 | 11.3 | 19.3 | 0.00 | 0.05 | 0.00 | 88 | 1016.0 |
| 20260505011559 | 11 | 15 | 9.7 | 20.9 | 0.00 | 0.05 | 0.00 | 88 | 1016.3 |
| 20260505010056 | 11 | 23 | 8.0 | 20.9 | 0.00 | 0.05 | 0.00 | 88 | 1016.4 |
| 20260505004555 | 11 | 25 | 9.7 | 16.1 | 0.00 | 0.05 | 0.00 | 88 | 1016.4 |
| 20260505003056 | 11 | 13 | 9.7 | 17.7 | 0.00 | 0.05 | 0.00 | 88 | 1016.4 |
| 20260505001555 | 11 | 30 | 6.4 | 14.5 | 0.00 | 0.05 | 0.00 | 88 | 1016.5 |
| 20260505000056 | 11 | 40 | 8.0 | 19.3 | 0.00 | 0.05 | 0.00 | 87 | 1016.6 |
| 20260504234612 | 11 | 39 | 9.7 | 17.7 | 0.00 | 0.05 | 0.00 | 87 | 1016.7 |
| 20260504233050 | 11 | 34 | 12.9 | 20.9 | 0.00 | 0.05 | 0.00 | 87 | 1016.7 |
| 20260504231559 | 11 | 37 | 14.5 | 25.7 | 0.00 | 0.05 | 0.00 | 87 | 1016.7 |
| 20260504230045 | 11 | 35 | 12.9 | 24.1 | 0.00 | 0.05 | 0.00 | 87 | 1016.6 |
| 20260504224543 | 11 | 39 | 12.9 | 17.7 | 0.00 | 0.05 | 0.05 | 87 | 1016.8 |
| 20260504223043 | 11 | 20 | 11.3 | 20.9 | 0.00 | 0.05 | 0.05 | 87 | 1016.8 |
| 20260504221548 | 11 | 58 | 8.0 | 16.1 | 0.00 | 0.05 | 0.05 | 87 | 1016.8 |
| 20260504220041 | 11 | 40 | 8.0 | 14.5 | 0.00 | 0.05 | 0.05 | 87 | 1016.7 |
| 20260504214543 | 11 | 46 | 8.0 | 12.9 | 0.00 | 0.05 | 0.05 | 86 | 1016.6 |
| 20260504213040 | 11 | 51 | 9.7 | 16.1 | 0.00 | 0.05 | 0.05 | 86 | 1016.8 |
| 20260504211548 | 11 | 37 | 12.9 | 20.9 | 0.00 | 0.05 | 0.05 | 86 | 1016.9 |
| 20260504210052 | 11 | 49 | 14.5 | 20.9 | 0.00 | 0.05 | 0.05 | 86 | 1016.8 |
| 20260504204536 | 11 | 33 | 12.9 | 19.3 | 0.00 | 0.05 | 0.05 | 85 | 1016.8 |
| 20260504203037 | 11 | 37 | 12.9 | 19.3 | 0.00 | 0.05 | 0.05 | 85 | 1016.9 |
| 20260504201530 | 11 | 49 | 11.3 | 17.7 | 0.00 | 0.05 | 0.05 | 85 | 1016.8 |
| 20260504200028 | 11 | 40 | 8.0 | 12.9 | 0.00 | 0.05 | 0.05 | 83 | 1016.5 |
| 20260504194539 | 12 | 65 | 4.8 | 12.9 | 0.00 | 0.05 | 0.05 | 83 | 1016.4 |
| 20260504193028 | 12 | 39 | 8.0 | 12.9 | 0.00 | 0.05 | 0.05 | 81 | 1016.3 |
| 20260504191528 | 12 | 16 | 6.4 | 12.9 | 0.00 | 0.05 | 0.05 | 81 | 1016.2 |
| 20260504190023 | 13 | 44 | 8.0 | 12.9 | 0.00 | 0.05 | 0.05 | 80 | 1016.1 |
| 20260504184525 | 13 | 60 | 6.4 | 11.3 | 0.00 | 0.05 | 0.05 | 79 | 1016.0 |
| 20260504183020 | 13 | 37 | 4.8 | 9.7 | 0.00 | 0.05 | 0.05 | 79 | 1016.1 |
| 20260504181519 | 14 | 11 | 1.6 | 8.0 | 0.00 | 0.05 | 0.05 | 79 | 1016.0 |
| 20260504180020 | 13 | 6 | 6.4 | 9.7 | 0.00 | 0.05 | 0.05 | 79 | 1015.9 |
| 20260504174518 | 14 | 44 | 4.8 | 9.7 | 0.00 | 0.05 | 0.05 | 79 | 1016.0 |
| 20260504173019 | 14 | 52 | 6.4 | 11.3 | 0.00 | 0.05 | 0.05 | 78 | 1015.7 |
| 20260504171514 | 15 | 65 | 6.4 | 12.9 | 0.00 | 0.05 | 0.05 | 78 | 1015.8 |
| 20260504140115 | 16 | 149 | 3.2 | 9.7 | 0.00 | 0.05 | 0.05 | 80 | 1015.6 |